| time (UTC) | temp F | wind direction | speed MPH | gust MPH | rain 1hr in | rain 24hr in | rain mn in | humidity % | barometer mb |
| 20260503184613 | 59 | 45 | 1.0 | 3.0 | 0.00 | 0.00 | 0.00 | 1013.4 | |
| 20260503184213 | 58 | 292 | 1.0 | 1.0 | 0.00 | 0.00 | 0.00 | 1013.5 | |
| 20260503184113 | 58 | 292 | 0.0 | 1.0 | 0.00 | 0.00 | 0.00 | 1013.3 | |
| 20260503184013 | 58 | 0 | 1.0 | 2.0 | 0.00 | 0.00 | 0.00 | 1013.5 | |
| 20260503183913 | 58 | 45 | 1.0 | 2.0 | 0.00 | 0.00 | 0.00 | 1013.5 | |
| 20260503183513 | 58 | 45 | 1.0 | 2.0 | 0.00 | 0.00 | 0.00 | 1013.5 | |
| 20260503183413 | 58 | 22 | 1.0 | 2.0 | 0.00 | 0.00 | 0.00 | 1013.5 | |
| 20260503183013 | 58 | 337 | 1.0 | 2.0 | 0.00 | 0.00 | 0.00 | 1013.4 | |
| 20260503182613 | 57 | 45 | 1.0 | 1.0 | 0.00 | 0.00 | 0.00 | 1013.4 | |
| 20260503182514 | 57 | 45 | 0.0 | 0.0 | 0.00 | 0.00 | 0.00 | 1013.6 | |
| 20260503181513 | 57 | 337 | 2.0 | 3.0 | 0.00 | 0.00 | 0.00 | 1013.6 | |
| 20260503181113 | 57 | 315 | 1.0 | 2.0 | 0.00 | 0.00 | 0.00 | 1013.8 | |
| 20260503180713 | 57 | 157 | 0.0 | 0.0 | 0.00 | 0.00 | 0.00 | 1013.6 | |
| 20260503180313 | 57 | 247 | 1.0 | 2.0 | 0.00 | 0.00 | 0.00 | 1013.6 | |
| 20260503180213 | 57 | 270 | 1.0 | 2.0 | 0.00 | 0.00 | 0.00 | 1013.7 | |
| 20260503174913 | 58 | 67 | 0.0 | 2.0 | 0.00 | 0.00 | 0.00 | 1013.5 | |
| 20260503174813 | 58 | 67 | 1.0 | 2.0 | 0.00 | 0.00 | 0.00 | 1013.4 | |
| 20260503174714 | 58 | 45 | 2.0 | 2.0 | 0.00 | 0.00 | 0.00 | 1013.5 | |
| 20260503174613 | 58 | 337 | 2.0 | 2.0 | 0.00 | 0.00 | 0.00 | 1013.5 | |
| 20260503174514 | 58 | 337 | 2.0 | 2.0 | 0.00 | 0.00 | 0.00 | 1013.2 | |
| 20260503173814 | 58 | 202 | 1.0 | 2.0 | 0.00 | 0.00 | 0.00 | 1013.4 | |
| 20260503173413 | 58 | 202 | 0.0 | 1.0 | 0.00 | 0.00 | 0.00 | 1013.3 | |
| 20260503173314 | 58 | 157 | 1.0 | 2.0 | 0.00 | 0.00 | 0.00 | 1013.5 | |
| 20260503173213 | 58 | 202 | 2.0 | 3.0 | 0.00 | 0.00 | 0.00 | 1013.3 | |
| 20260503173113 | 58 | 180 | 1.0 | 2.0 | 0.00 | 0.00 | 0.00 | 1013.5 | |
| 20260503172713 | 58 | 225 | 2.0 | 3.0 | 0.00 | 0.00 | 0.00 | 1013.2 | |
| 20260503172313 | 58 | 225 | 1.0 | 2.0 | 0.00 | 0.00 | 0.00 | 1013.2 | |
| 20260503172214 | 58 | 225 | 1.0 | 1.0 | 0.00 | 0.00 | 0.00 | 1013.4 | |
| 20260503172114 | 58 | 202 | 1.0 | 1.0 | 0.00 | 0.00 | 0.00 | 1013.2 | |
| 20260503170213 | 58 | 225 | 2.0 | 4.0 | 0.00 | 0.00 | 0.00 | 1013.1 | |
| 20260503170113 | 58 | 202 | 2.0 | 3.0 | 0.00 | 0.00 | 0.00 | 1013.1 | |
| 20260503150813 | 56 | 157 | 0.0 | 1.0 | 0.00 | 0.00 | 0.00 | 1012.5 | |
| 20260503150715 | 56 | 135 | 0.0 | 1.0 | 0.00 | 0.00 | 0.00 | 1012.6 | |
| 20260503150613 | 56 | 180 | 0.0 | 0.0 | 0.00 | 0.00 | 0.00 | 1012.4 | |
| 20260503140113 | 55 | 45 | 1.0 | 1.0 | 0.00 | 0.00 | 0.00 | 1012.1 | |
| 20260503131414 | 55 | 180 | 0.0 | 1.0 | 0.00 | 0.00 | 0.00 | 1011.8 | |
| 20260503131313 | 55 | 225 | 0.0 | 1.0 | 0.00 | 0.00 | 0.00 | 1011.7 | |
| 20260503131213 | 55 | 202 | 1.0 | 2.0 | 0.00 | 0.00 | 0.00 | 1011.8 | |
| 20260503131113 | 55 | 225 | 2.0 | 3.0 | 0.00 | 0.00 | 0.00 | 1011.7 | |
| 20260503131013 | 55 | 202 | 1.0 | 3.0 | 0.00 | 0.00 | 0.00 | 1011.8 | |
| 20260503130913 | 55 | 202 | 0.0 | 1.0 | 0.00 | 0.00 | 0.00 | 1011.8 | |
| 20260503130513 | 55 | 225 | 3.0 | 3.0 | 0.00 | 0.00 | 0.00 | 1011.6 | |
| 20260503130413 | 56 | 225 | 2.0 | 3.0 | 0.00 | 0.00 | 0.00 | 1011.6 | |
| 20260503110213 | 57 | 225 | 1.0 | 1.0 | 0.00 | 0.00 | 0.00 | 1011.3 | |
| 20260503110113 | 57 | 202 | 1.0 | 1.0 | 0.00 | 0.00 | 0.00 | 1011.3 | |
| 20260503090113 | 57 | 202 | 1.0 | 2.0 | 0.00 | 0.00 | 0.00 | 1012.0 | |
| 20260503081213 | 57 | 202 | 1.0 | 2.0 | 0.00 | 0.00 | 0.00 | 1012.0 | |
| 20260503081113 | 57 | 225 | 1.0 | 2.0 | 0.00 | 0.00 | 0.00 | 1011.5 | |
| 20260503081013 | 57 | 225 | 2.0 | 2.0 | 0.00 | 0.00 | 0.00 | 1011.9 | |
| 20260503080913 | 57 | 202 | 1.0 | 2.0 | 0.00 | 0.00 | 0.00 | 1011.9 | |
| 20260503080213 | 56 | 225 | 1.0 | 1.0 | 0.00 | 0.00 | 0.00 | 1011.8 | |
| 20260503072913 | 56 | 225 | 2.0 | 4.0 | 0.00 | 0.00 | 0.00 | 1011.6 | |
| 20260503072813 | 56 | 202 | 2.0 | 3.0 | 0.00 | 0.00 | 0.00 | 1011.5 | |
| 20260503072413 | 56 | 157 | 2.0 | 2.0 | 0.00 | 0.00 | 0.00 | 1011.5 | |
| 20260503071713 | 56 | 225 | 1.0 | 2.0 | 0.00 | 0.00 | 0.00 | 1011.5 | |
| 20260503071613 | 56 | 202 | 1.0 | 2.0 | 0.00 | 0.00 | 0.00 | 1011.5 | |
| 20260503071213 | 56 | 202 | 1.0 | 2.0 | 0.00 | 0.00 | 0.00 | 1011.4 | |
| 20260503071113 | 56 | 225 | 1.0 | 2.0 | 0.00 | 0.00 | 0.00 | 1011.4 | |
| 20260503071013 | 56 | 202 | 1.0 | 2.0 | 0.00 | 0.00 | 0.00 | 1011.1 | |
| 20260503055113 | 58 | 270 | 1.0 | 1.0 | 0.00 | 0.00 | 0.00 | 1011.2 | |
| 20260503054713 | 58 | 180 | 1.0 | 3.0 | 0.00 | 0.00 | 0.00 | 1011.2 | |
| 20260503054613 | 58 | 202 | 2.0 | 3.0 | 0.00 | 0.00 | 0.00 | 1011.3 | |
| 20260503054513 | 58 | 202 | 1.0 | 2.0 | 0.00 | 0.00 | 0.00 | 1011.3 | |
| 20260503054114 | 59 | 157 | 1.0 | 2.0 | 0.00 | 0.00 | 0.00 | 1011.3 | |
| 20260503053113 | 59 | 225 | 1.0 | 2.0 | 0.00 | 0.00 | 0.00 | 1011.3 | |
| 20260503052713 | 59 | 157 | 0.0 | 0.0 | 0.00 | 0.00 | 0.00 | 1011.4 | |
| 20260503052313 | 59 | 270 | 1.0 | 2.0 | 0.00 | 0.00 | 0.00 | 1011.4 | |
| 20260503052217 | 59 | 270 | 2.0 | 3.0 | 0.00 | 0.00 | 0.00 | 1011.5 | |
| 20260503052113 | 59 | 247 | 2.0 | 3.0 | 0.00 | 0.00 | 0.00 | 1011.4 | |
| 20260503052013 | 59 | 180 | 1.0 | 2.0 | 0.00 | 0.00 | 0.00 | 1011.4 | |
| 20260503051613 | 60 | 225 | 0.0 | 1.0 | 0.00 | 0.00 | 0.00 | 1011.3 | |
| 20260503051513 | 60 | 225 | 1.0 | 3.0 | 0.00 | 0.00 | 0.00 | 1011.3 | |
| 20260503051413 | 60 | 180 | 0.0 | 1.0 | 0.00 | 0.00 | 0.00 | 1011.5 | |
| 20260503051313 | 60 | 180 | 2.0 | 2.0 | 0.00 | 0.00 | 0.00 | 1011.4 | |
| 20260503051213 | 60 | 202 | 1.0 | 2.0 | 0.00 | 0.00 | 0.00 | 1011.3 | |
| 20260503050513 | 60 | 180 | 0.0 | 1.0 | 0.00 | 0.00 | 0.00 | 1011.3 | |
| 20260503050113 | 60 | 202 | 1.0 | 3.0 | 0.00 | 0.00 | 0.00 | 1011.3 | |
| 20260503050013 | 60 | 180 | 1.0 | 3.0 | 0.00 | 0.00 | 0.00 | 1011.3 | |
| 20260503045613 | 60 | 157 | 0.0 | 2.0 | 0.00 | 0.00 | 0.00 | 1011.3 | |
| 20260503044313 | 61 | 225 | 1.0 | 3.0 | 0.00 | 0.00 | 0.00 | 1011.1 | |
| 20260503044213 | 61 | 157 | 1.0 | 3.0 | 0.00 | 0.00 | 0.00 | 1011.0 | |
| 20260503044113 | 61 | 135 | 1.0 | 2.0 | 0.00 | 0.00 | 0.00 | 1011.2 | |
| 20260503043413 | 61 | 202 | 0.0 | 1.0 | 0.00 | 0.00 | 0.00 | 1011.0 | |
| 20260503043313 | 61 | 202 | 0.0 | 1.0 | 0.00 | 0.00 | 0.00 | 1011.1 | |
| 20260503043213 | 61 | 157 | 1.0 | 2.0 | 0.00 | 0.00 | 0.00 | 1011.1 | |
| 20260503043113 | 61 | 202 | 1.0 | 1.0 | 0.00 | 0.00 | 0.00 | 1011.1 | |
| 20260503043013 | 61 | 180 | 1.0 | 1.0 | 0.00 | 0.00 | 0.00 | 1011.1 | |
| 20260503042913 | 61 | 202 | 1.0 | 1.0 | 0.00 | 0.00 | 0.00 | 1011.1 | |
| 20260503042513 | 61 | 180 | 0.0 | 1.0 | 0.00 | 0.00 | 0.00 | 1010.9 | |
| 20260503041213 | 61 | 202 | 0.0 | 0.0 | 0.00 | 0.00 | 0.00 | 1010.8 | |
| 20260503040813 | 61 | 202 | 2.0 | 2.0 | 0.00 | 0.00 | 0.00 | 1010.8 | |
| 20260503040713 | 61 | 202 | 1.0 | 2.0 | 0.00 | 0.00 | 0.00 | 1010.7 | |
| 20260503040313 | 61 | 225 | 0.0 | 1.0 | 0.00 | 0.00 | 0.00 | 1010.6 | |
| 20260503035313 | 62 | 157 | 0.0 | 1.0 | 0.00 | 0.00 | 0.00 | 1010.6 | |
| 20260503035213 | 62 | 225 | 1.0 | 1.0 | 0.00 | 0.00 | 0.00 | 1010.6 | |
| 20260503034513 | 62 | 225 | 2.0 | 3.0 | 0.00 | 0.00 | 0.00 | 1010.1 | |
| 20260503034113 | 62 | 180 | 1.0 | 2.0 | 0.00 | 0.00 | 0.00 | 1010.2 | |
| 20260503034013 | 62 | 202 | 1.0 | 2.0 | 0.00 | 0.00 | 0.00 | 1010.1 | |
| 20260503033313 | 62 | 202 | 2.0 | 4.0 | 0.00 | 0.00 | 0.00 | 1010.0 | |
| 20260503033213 | 62 | 157 | 3.0 | 4.0 | 0.00 | 0.00 | 0.00 | 1010.0 | |
| 20260503032213 | 62 | 202 | 3.0 | 5.0 | 0.00 | 0.00 | 0.00 | 1010.1 | |
| 20260503032113 | 63 | 180 | 2.0 | 3.0 | 0.00 | 0.00 | 0.00 | 1010.1 | |
| 20260503032013 | 63 | 202 | 1.0 | 2.0 | 0.00 | 0.00 | 0.00 | 1010.0 | |
| 20260503031613 | 63 | 202 | 2.0 | 3.0 | 0.00 | 0.00 | 0.00 | 1009.7 | |
| 20260503030913 | 63 | 247 | 1.0 | 2.0 | 0.00 | 0.00 | 0.00 | 1009.5 | |
| 20260503030813 | 63 | 247 | 3.0 | 3.0 | 0.00 | 0.00 | 0.00 | 1009.6 | |
| 20260503030413 | 63 | 202 | 4.0 | 4.0 | 0.00 | 0.00 | 0.00 | 1009.6 | |
| 20260503030013 | 63 | 202 | 2.0 | 4.0 | 0.00 | 0.00 | 0.00 | 1009.6 | |
| 20260503025913 | 63 | 180 | 1.0 | 3.0 | 0.00 | 0.00 | 0.00 | 1009.6 | |
| 20260503024913 | 64 | 225 | 2.0 | 4.0 | 0.00 | 0.00 | 0.00 | 1009.4 | |
| 20260503024813 | 64 | 180 | 1.0 | 2.0 | 0.00 | 0.00 | 0.00 | 1009.3 | |
| 20260503024713 | 64 | 202 | 3.0 | 5.0 | 0.00 | 0.00 | 0.00 | 1009.2 | |
| 20260503024613 | 64 | 225 | 5.0 | 6.0 | 0.00 | 0.00 | 0.00 | 1009.2 | |
| 20260503024514 | 64 | 157 | 4.0 | 5.0 | 0.00 | 0.00 | 0.00 | 1009.4 | |
| 20260503024413 | 64 | 202 | 4.0 | 7.0 | 0.00 | 0.00 | 0.00 | 1009.3 | |
| 20260503024313 | 64 | 225 | 3.0 | 6.0 | 0.00 | 0.00 | 0.00 | 1009.3 | |
| 20260503024213 | 64 | 292 | 4.0 | 6.0 | 0.00 | 0.00 | 0.00 | 1009.3 | |
| 20260503024113 | 64 | 225 | 5.0 | 7.0 | 0.00 | 0.00 | 0.00 | 1009.2 | |
| 20260503024013 | 64 | 225 | 3.0 | 4.0 | 0.00 | 0.00 | 0.00 | 1009.2 | |
| 20260503023913 | 64 | 225 | 5.0 | 6.0 | 0.00 | 0.00 | 0.00 | 1009.3 | |
| 20260503023813 | 64 | 225 | 4.0 | 5.0 | 0.00 | 0.00 | 0.00 | 1009.1 | |
| 20260503023713 | 65 | 225 | 3.0 | 6.0 | 0.00 | 0.00 | 0.00 | 1009.0 | |
| 20260503023314 | 65 | 225 | 4.0 | 5.0 | 0.00 | 0.00 | 0.00 | 1008.9 | |
| 20260503022013 | 66 | 180 | 3.0 | 6.0 | 0.00 | 0.00 | 0.00 | 1008.8 | |
| 20260503021913 | 66 | 180 | 2.0 | 4.0 | 0.00 | 0.00 | 0.00 | 1008.7 | |
| 20260503021213 | 67 | 225 | 4.0 | 5.0 | 0.00 | 0.00 | 0.00 | 1008.6 | |
| 20260503020513 | 68 | 225 | 2.0 | 4.0 | 0.00 | 0.00 | 0.00 | 1008.6 | |
| 20260503015813 | 68 | 225 | 2.0 | 3.0 | 0.00 | 0.00 | 0.00 | 1008.6 | |
| 20260503015413 | 68 | 180 | 1.0 | 2.0 | 0.00 | 0.00 | 0.00 | 1008.6 | |
| 20260503014713 | 69 | 247 | 2.0 | 3.0 | 0.00 | 0.00 | 0.00 | 1008.6 | |
| 20260503013713 | 70 | 225 | 3.0 | 6.0 | 0.00 | 0.00 | 0.00 | 1008.5 | |
| 20260503013613 | 70 | 225 | 3.0 | 6.0 | 0.00 | 0.00 | 0.00 | 1008.6 | |
| 20260503012613 | 70 | 180 | 3.0 | 4.0 | 0.00 | 0.00 | 0.00 | 1008.4 | |
| 20260503012513 | 70 | 180 | 2.0 | 3.0 | 0.00 | 0.00 | 0.00 | 1008.5 | |
| 20260503012413 | 70 | 90 | 1.0 | 2.0 | 0.00 | 0.00 | 0.00 | 1008.4 | |
| 20260503012314 | 70 | 157 | 2.0 | 3.0 | 0.00 | 0.00 | 0.00 | 1008.4 | |
| 20260503012213 | 70 | 202 | 2.0 | 5.0 | 0.00 | 0.00 | 0.00 | 1008.3 | |
| 20260503011213 | 71 | 225 | 1.0 | 4.0 | 0.00 | 0.00 | 0.00 | 1008.6 | |
| 20260503010813 | 71 | 135 | 4.0 | 6.0 | 0.00 | 0.00 | 0.00 | 1008.6 | |
| 20260503010714 | 71 | 270 | 2.0 | 3.0 | 0.00 | 0.00 | 0.00 | 1008.6 | |
| 20260503005413 | 71 | 202 | 2.0 | 4.0 | 0.00 | 0.00 | 0.00 | 1008.7 | |
| 20260503005013 | 72 | 202 | 1.0 | 2.0 | 0.00 | 0.00 | 0.00 | 1008.6 | |
| 20260503004013 | 72 | 202 | 3.0 | 4.0 | 0.00 | 0.00 | 0.00 | 1008.7 | |
| 20260503003313 | 72 | 225 | 3.0 | 5.0 | 0.00 | 0.00 | 0.00 | 1008.6 | |
| 20260503003213 | 72 | 202 | 1.0 | 2.0 | 0.00 | 0.00 | 0.00 | 1008.4 | |
| 20260503003113 | 72 | 135 | 5.0 | 7.0 | 0.00 | 0.00 | 0.00 | 1008.6 | |
| 20260503001813 | 73 | 202 | 5.0 | 8.0 | 0.00 | 0.00 | 0.00 | 1008.6 | |
| 20260503001113 | 74 | 180 | 3.0 | 5.0 | 0.00 | 0.00 | 0.00 | 1008.4 | |
| 20260503001014 | 74 | 157 | 2.0 | 4.0 | 0.00 | 0.00 | 0.00 | 1008.5 | |
| 20260503000313 | 74 | 157 | 2.0 | 6.0 | 0.00 | 0.00 | 0.00 | 1008.5 | |
| 20260502235913 | 74 | 180 | 6.0 | 9.0 | 0.00 | 0.00 | 0.00 | 1008.5 | |
| 20260502235213 | 75 | 157 | 3.0 | 6.0 | 0.00 | 0.00 | 0.00 | 1008.4 | |
| 20260502234813 | 75 | 112 | 2.0 | 4.0 | 0.00 | 0.00 | 0.00 | 1008.2 | |
| 20260502233513 | 75 | 180 | 3.0 | 6.0 | 0.00 | 0.00 | 0.00 | 1008.4 | |
| 20260502233414 | 75 | 180 | 2.0 | 3.0 | 0.00 | 0.00 | 0.00 | 1008.5 | |
| 20260502232713 | 76 | 225 | 3.0 | 6.0 | 0.00 | 0.00 | 0.00 | 1008.5 | |
| 20260502232313 | 76 | 270 | 5.0 | 8.0 | 0.00 | 0.00 | 0.00 | 1008.5 | |
| 20260502231913 | 76 | 225 | 5.0 | 8.0 | 0.00 | 0.00 | 0.00 | 1008.6 | |
| 20260502230313 | 78 | 157 | 3.0 | 6.0 | 0.00 | 0.00 | 0.00 | 1008.7 | |
| 20260502230215 | 78 | 180 | 3.0 | 6.0 | 0.00 | 0.00 | 0.00 | 1008.7 | |
| 20260502225813 | 79 | 202 | 2.0 | 3.0 | 0.00 | 0.00 | 0.00 | 1008.8 | |
| 20260502225714 | 79 | 180 | 2.0 | 5.0 | 0.00 | 0.00 | 0.00 | 1009.1 | |
| 20260502225013 | 80 | 180 | 3.0 | 6.0 | 0.00 | 0.00 | 0.00 | 1009.1 | |
| 20260502224313 | 80 | 180 | 7.0 | 8.0 | 0.00 | 0.00 | 0.00 | 1009.1 | |
| 20260502224213 | 80 | 202 | 4.0 | 9.0 | 0.00 | 0.00 | 0.00 | 1009.3 | |
| 20260502224113 | 80 | 180 | 6.0 | 9.0 | 0.00 | 0.00 | 0.00 | 1009.4 | |
| 20260502223713 | 81 | 225 | 5.0 | 8.0 | 0.00 | 0.00 | 0.00 | 1009.2 | |
| 20260502223613 | 80 | 247 | 5.0 | 7.0 | 0.00 | 0.00 | 0.00 | 1009.4 | |
| 20260502223513 | 80 | 225 | 4.0 | 7.0 | 0.00 | 0.00 | 0.00 | 1009.5 | |
| 20260502223413 | 80 | 202 | 3.0 | 6.0 | 0.00 | 0.00 | 0.00 | 1009.4 | |
| 20260502223013 | 81 | 135 | 3.0 | 4.0 | 0.00 | 0.00 | 0.00 | 1009.4 | |
| 20260502222913 | 81 | 202 | 2.0 | 6.0 | 0.00 | 0.00 | 0.00 | 1009.3 | |
| 20260502222213 | 81 | 225 | 7.0 | 12.0 | 0.00 | 0.00 | 0.00 | 1009.5 | |
| 20260502221814 | 81 | 225 | 3.0 | 6.0 | 0.00 | 0.00 | 0.00 | 1009.7 | |
| 20260502221713 | 81 | 157 | 4.0 | 6.0 | 0.00 | 0.00 | 0.00 | 1009.6 | |
| 20260502221313 | 81 | 225 | 5.0 | 7.0 | 0.00 | 0.00 | 0.00 | 1009.6 | |
| 20260502221213 | 82 | 202 | 5.0 | 7.0 | 0.00 | 0.00 | 0.00 | 1010.0 | |
| 20260502221113 | 81 | 225 | 2.0 | 3.0 | 0.00 | 0.00 | 0.00 | 1009.9 | |
| 20260502220413 | 82 | 225 | 1.0 | 3.0 | 0.00 | 0.00 | 0.00 | 1009.9 | |
| 20260502220013 | 82 | 180 | 3.0 | 5.0 | 0.00 | 0.00 | 0.00 | 1010.0 | |
| 20260502215913 | 81 | 180 | 2.0 | 4.0 | 0.00 | 0.00 | 0.00 | 1009.8 | |
| 20260502214313 | 80 | 202 | 4.0 | 9.0 | 0.00 | 0.00 | 0.00 | 1010.3 | |
| 20260502213913 | 80 | 202 | 4.0 | 6.0 | 0.00 | 0.00 | 0.00 | 1010.2 | |
| 20260502213813 | 80 | 157 | 5.0 | 8.0 | 0.00 | 0.00 | 0.00 | 1010.2 | |
| 20260502213413 | 80 | 225 | 3.0 | 5.0 | 0.00 | 0.00 | 0.00 | 1010.2 | |
| 20260502212713 | 80 | 112 | 2.0 | 3.0 | 0.00 | 0.00 | 0.00 | 1010.3 | |
| 20260502212613 | 80 | 225 | 3.0 | 6.0 | 0.00 | 0.00 | 0.00 | 1010.3 | |
| 20260502212513 | 80 | 180 | 3.0 | 4.0 | 0.00 | 0.00 | 0.00 | 1010.6 | |
| 20260502212413 | 80 | 225 | 5.0 | 7.0 | 0.00 | 0.00 | 0.00 | 1010.3 | |
| 20260502212013 | 80 | 180 | 4.0 | 6.0 | 0.00 | 0.00 | 0.00 | 1010.5 | |
| 20260502211914 | 79 | 157 | 2.0 | 3.0 | 0.00 | 0.00 | 0.00 | 1010.5 | |
| 20260502211213 | 80 | 225 | 2.0 | 3.0 | 0.00 | 0.00 | 0.00 | 1010.4 | |
| 20260502210513 | 79 | 157 | 4.0 | 7.0 | 0.00 | 0.00 | 0.00 | 1010.7 | |
| 20260502205813 | 79 | 180 | 1.0 | 2.0 | 0.00 | 0.00 | 0.00 | 1010.5 | |
| 20260502205713 | 80 | 180 | 2.0 | 4.0 | 0.00 | 0.00 | 0.00 | 1010.5 | |
| 20260502205613 | 80 | 202 | 2.0 | 2.0 | 0.00 | 0.00 | 0.00 | 1010.4 | |
| 20260502205214 | 79 | 202 | 2.0 | 4.0 | 0.00 | 0.00 | 0.00 | 1010.5 | |
| 20260502204813 | 79 | 202 | 3.0 | 6.0 | 0.00 | 0.00 | 0.00 | 1010.8 | |
| 20260502204113 | 79 | 135 | 3.0 | 6.0 | 0.00 | 0.00 | 0.00 | 1010.7 | |
| 20260502204013 | 79 | 225 | 2.0 | 3.0 | 0.00 | 0.00 | 0.00 | 1010.8 | |
| 20260502203913 | 79 | 180 | 3.0 | 6.0 | 0.00 | 0.00 | 0.00 | 1010.8 | |
| 20260502203213 | 78 | 202 | 2.0 | 3.0 | 0.00 | 0.00 | 0.00 | 1011.0 | |
| 20260502203113 | 78 | 225 | 2.0 | 4.0 | 0.00 | 0.00 | 0.00 | 1010.8 | |
| 20260502203013 | 78 | 225 | 2.0 | 3.0 | 0.00 | 0.00 | 0.00 | 1010.9 | |
| 20260502202913 | 78 | 157 | 1.0 | 3.0 | 0.00 | 0.00 | 0.00 | 1010.8 | |
| 20260502202513 | 77 | 180 | 2.0 | 4.0 | 0.00 | 0.00 | 0.00 | 1011.0 | |
| 20260502202413 | 76 | 157 | 3.0 | 6.0 | 0.00 | 0.00 | 0.00 | 1010.9 | |
| 20260502202013 | 77 | 225 | 4.0 | 7.0 | 0.00 | 0.00 | 0.00 | 1011.0 | |
| 20260502201613 | 77 | 202 | 2.0 | 4.0 | 0.00 | 0.00 | 0.00 | 1011.2 | |
| 20260502201213 | 76 | 157 | 1.0 | 2.0 | 0.00 | 0.00 | 0.00 | 1011.0 | |
| 20260502201113 | 76 | 135 | 1.0 | 2.0 | 0.00 | 0.00 | 0.00 | 1010.9 | |
| 20260502200714 | 76 | 67 | 1.0 | 2.0 | 0.00 | 0.00 | 0.00 | 1011.2 | |
| 20260502200613 | 76 | 225 | 2.0 | 3.0 | 0.00 | 0.00 | 0.00 | 1011.0 | |
| 20260502200513 | 76 | 225 | 4.0 | 7.0 | 0.00 | 0.00 | 0.00 | 1011.5 | |
| 20260502200113 | 75 | 337 | 2.0 | 4.0 | 0.00 | 0.00 | 0.00 | 1011.2 | |
| 20260502200013 | 76 | 247 | 4.0 | 5.0 | 0.00 | 0.00 | 0.00 | 1011.4 | |
| 20260502195013 | 75 | 292 | 2.0 | 5.0 | 0.00 | 0.00 | 0.00 | 1011.5 | |
| 20260502194313 | 73 | 67 | 3.0 | 8.0 | 0.00 | 0.00 | 0.00 | 1011.6 | |
| 20260502194214 | 73 | 225 | 3.0 | 5.0 | 0.00 | 0.00 | 0.00 | 1011.9 | |
| 20260502194113 | 73 | 315 | 4.0 | 5.0 | 0.00 | 0.00 | 0.00 | 1011.6 | |
| 20260502192513 | 72 | 157 | 2.0 | 3.0 | 0.00 | 0.00 | 0.00 | 1012.1 | |
| 20260502192113 | 72 | 180 | 5.0 | 7.0 | 0.00 | 0.00 | 0.00 | 1012.3 | |
| 20260502191713 | 72 | 225 | 5.0 | 9.0 | 0.00 | 0.00 | 0.00 | 1012.3 | |
| 20260502191313 | 72 | 202 | 4.0 | 7.0 | 0.00 | 0.00 | 0.00 | 1012.3 | |
| 20260502190313 | 72 | 225 | 2.0 | 3.0 | 0.00 | 0.00 | 0.00 | 1012.2 | |
| 20260502185913 | 71 | 180 | 2.0 | 4.0 | 0.00 | 0.00 | 0.00 | 1012.5 | |
| 20260502185513 | 71 | 202 | 1.0 | 2.0 | 0.00 | 0.00 | 0.00 | 1012.4 | |
| 20260502185413 | 71 | 247 | 0.0 | 1.0 | 0.00 | 0.00 | 0.00 | 1012.1 | |
| 20260502185313 | 71 | 135 | 0.0 | 1.0 | 0.00 | 0.00 | 0.00 | 1012.4 | |
| 20260502185213 | 71 | 180 | 1.0 | 2.0 | 0.00 | 0.00 | 0.00 | 1012.4 |